Weather History for Sarasota, FL

Change the Weather History Date:

Saturday, January 24, 1998

  Actual Average Record
Temperature  
Mean Temperature 64 °F 62 °F  
Max Temperature 69 °F 71 °F 85 °F (1967)
Min Temperature 57 °F 52 °F 29 °F (1960)
Degree Days  
Heating Degree Days 1 5  
Month to date heating degree days 129  
Since 1 July heating degree days 284  
Cooling Degree Days 0 2  
Month to date cooling degree days 48  
Year to date cooling degree days 48  
Growing Degree Days 14 (Base 50)    
Moisture  
Dew Point 59 °F    
Average Humidity 84    
Maximum Humidity 100    
Minimum Humidity 63    
Precipitation  
Precipitation 0.00 in 0.05 in 6.10 in (1998)
Month to date precipitation 2.09  
Year to date precipitation 2.09  
Sea Level Pressure  
Sea Level Pressure 29.99 in    
Wind  
Wind Speed 8 mph (NNW)    
Max Wind Speed 22 mph    
Max Gust Speed -    
Visibility 10 miles    
Events Fog , Rain    
T = Trace of Precipitation, MM = Missing Value Source: NWS Daily Summary

Daily Weather History Graph

Daily Weather History Graph

Search for Another Location

Airport:

Trip Planner

Search our weather history database for the weather conditions in past years. The results will help you decide how hot, cold, wet, or windy it might be!

Date:

Astronomy

Jan. 24, 1998 Rise Set
Actual Time 7:19 AM EST 6:05 PM EST
Civil Twilight 6:55 AM EST 6:29 PM EST
Nautical Twilight 6:26 AM EST 6:58 PM EST
Astronomical Twilight 5:58 AM EST 7:26 PM EST
Moon 3:50 AM EST (1/24) 2:55 PM EST (1/24)
Length of Visible Light 11h 34m
Length of Day
10h 45m
Waning Crescent, 15% of the Moon is Illuminated
Jan 24
Waning Crescent
Jan 28
New
Feb 3
First Quarter
Feb 11
Full
Feb 19
Last Quarter

Hourly Weather History & Observations

Time (EST) Temp. Dew Point Humidity Pressure Visibility Wind Dir Wind Speed Gust Speed Precip Events Conditions
5:50 AM 68.0 °F 66.2 °F 94% 29.88 in 3.0 mi Calm Calm - N/A   Overcast
6:50 AM 68.0 °F 68.0 °F 100% 29.90 in 3.0 mi Calm Calm - N/A   Overcast
7:50 AM 69.8 °F 68.0 °F 94% 29.92 in 0.5 mi Calm Calm - N/A Fog Fog
8:35 AM 69.8 °F 68.0 °F 94% 29.93 in 0.2 mi NW 8.1 mph - N/A Fog Fog
8:50 AM 69.8 °F 68.0 °F 94% 29.93 in 7.0 mi WNW 11.5 mph - N/A   Overcast
9:17 AM 66.2 °F 66.2 °F 100% 29.97 in 2.0 mi NW 15.0 mph - N/A Rain Rain
9:50 AM 66.2 °F 66.2 °F 100% 29.97 in 5.0 mi North 9.2 mph - N/A   Overcast
10:50 AM 64.4 °F 62.6 °F 94% 30.01 in 10.0 mi NNW 16.1 mph - N/A   Overcast
11:20 AM 64.4 °F 62.6 °F 94% 30.01 in 10.0 mi NNW 13.8 mph - N/A   Overcast
11:52 AM 66.2 °F 62.6 °F 88% 30.01 in 10.0 mi NW 15.0 mph - N/A   Overcast
12:52 PM 64.4 °F 60.8 °F 88% 30.01 in 10.0 mi NW 20.7 mph - N/A   Overcast
1:50 PM 64.4 °F 59.0 °F 83% 29.98 in 10.0 mi NW 17.3 mph - N/A   Overcast
2:50 PM 64.4 °F 59.0 °F 83% 29.98 in 10.0 mi NW 15.0 mph - N/A   Overcast
3:53 PM 64.4 °F 57.2 °F 77% 29.98 in 10.0 mi NW 21.9 mph - N/A   Overcast
4:50 PM 62.6 °F 53.6 °F 72% 29.99 in 15.0 mi NW 17.3 mph - N/A   Overcast
5:50 PM 60.8 °F 48.2 °F 63% 30.00 in 15.0 mi NNW 15.0 mph - N/A   Overcast
6:50 PM 60.8 °F 48.2 °F 63% 30.01 in 15.0 mi NNW 6.9 mph - N/A   Overcast
7:50 PM 59.0 °F 51.8 °F 77% 30.04 in 15.0 mi NNW 5.8 mph - N/A   Clear
8:50 PM 59.0 °F 51.8 °F 77% 30.06 in 20.0 mi North 5.8 mph - N/A   Scattered Clouds
9:50 PM 59.0 °F 51.8 °F 77% 30.07 in 20.0 mi North 5.8 mph - N/A   Scattered Clouds
10:50 PM 59.0 °F 48.2 °F 67% 30.10 in 20.0 mi North 5.8 mph - N/A   Mostly Cloudy
11:50 PM 57.2 °F 48.2 °F 72% 30.11 in 20.0 mi Calm Calm - N/A   Mostly Cloudy